Riverton, WY

5:40 AM MST on December 06, 2016 (GMT -0700)
Riverton Regional

Weather History for KRIW - January, 2014

Change the Weather History Date:

Wednesday, January 22, 2014

  Actual Average Record
Temperature  
Mean Temperature 26 °F 20 °F  
Max Temperature 36 °F 31 °F 49 °F (2009)
Min Temperature 16 °F 9 °F -25 °F (2008)
Degree Days  
Heating Degree Days 39 45  
Month to date heating degree days 915 996  
Since 1 July heating degree days 4219 4313  
Cooling Degree Days 0 0  
Month to date cooling degree days 0 0  
Year to date cooling degree days 0 0  
Moisture  
Dew Point 21 °F    
Average Humidity 72    
Maximum Humidity 92    
Minimum Humidity 51    
Precipitation  
Precipitation 0.15 in 0.00 in 0.17 in (2010)
Month to date precipitation 0.68 0.17  
Year to date precipitation 0.68 0.17  
Snow  
Snow 1.50 in - - ()
Month to date snowfall 10.7  
Since 1 July snowfall 43.8  
Snow Depth 0.00 in    
Sea Level Pressure  
Sea Level Pressure 30.22 in    
Wind  
Wind Speed 5 mph (ENE)    
Max Wind Speed 18 mph    
Max Gust Speed 22 mph    
Visibility 6 miles    
Events Fog , Snow    
T = Trace of Precipitation, MM = Missing Value Source: NWS Daily Summary

Daily Weather History Graph

Daily Weather History Graph

Search for Another Location

Airport or City:

Trip Planner

Search our weather history database for the weather conditions in past years. The results will help you decide how hot, cold, wet, or windy it might be!

Date:

Astronomy

Jan. 22, 2014 Rise Set
Actual Time 7:38 AM MST 5:13 PM MST
Civil Twilight 7:07 AM MST 5:44 PM MST
Nautical Twilight 6:32 AM MST 6:18 PM MST
Astronomical Twilight 5:58 AM MST 6:52 PM MST
Moon No Moon Rise 10:30 AM MST (1/22)
Length of Visible Light 10h 37m
Length of Day
9h 35m
Waning Gibbous, 65% of the Moon is Illuminated
Jan 22
Waning Gibbous
Jan 23
Last Quarter
Jan 30
New
Feb 6
First Quarter
Feb 14
Full

Hourly Weather History & Observations

Time (MST) Temp. Windchill Dew Point Humidity Pressure Visibility Wind Dir Wind Speed Gust Speed Precip Events Conditions
12:53 AM 26.1 °F 19.4 °F 12.9 °F 58% 30.19 in 10.0 mi ENE 5.8 mph - N/A   Clear
1:53 AM 23.0 °F 18.4 °F 12.9 °F 65% 30.21 in 10.0 mi North 3.5 mph - N/A   Clear
2:53 AM 23.0 °F - 12.9 °F 65% 30.20 in 10.0 mi Calm Calm - N/A   Clear
3:53 AM 21.9 °F 13.4 °F 12.0 °F 66% 30.21 in 10.0 mi NNW 6.9 mph - N/A   Clear
4:53 AM 19.0 °F - 10.9 °F 71% 30.23 in 10.0 mi Calm Calm - N/A   Clear
5:53 AM 19.9 °F - 10.9 °F 68% 30.25 in 10.0 mi Calm Calm - N/A   Clear
6:53 AM 19.0 °F 13.9 °F 12.0 °F 74% 30.26 in 10.0 mi North 3.5 mph - N/A   Clear
7:53 AM 23.0 °F - 14.0 °F 68% 30.22 in 10.0 mi Calm Calm - N/A   Clear
8:53 AM 23.0 °F 18.4 °F 16.0 °F 74% 30.22 in 10.0 mi NE 3.5 mph - N/A   Overcast
9:53 AM 25.0 °F - 17.1 °F 72% 30.23 in 10.0 mi Calm Calm - N/A   Scattered Clouds
10:53 AM 26.1 °F - 19.0 °F 75% 30.22 in 10.0 mi Calm Calm - N/A   Clear
11:53 AM 28.9 °F 22.8 °F 17.1 °F 61% 30.19 in 10.0 mi ENE 5.8 mph - N/A   Clear
12:53 PM 32.0 °F 24.8 °F 19.0 °F 59% 30.14 in 10.0 mi ENE 8.1 mph - N/A   Partly Cloudy
1:53 PM 34.0 °F 27.2 °F 18.0 °F 52% 30.12 in 10.0 mi ENE 8.1 mph - N/A   Clear
2:53 PM 36.0 °F 28.0 °F 21.9 °F 57% 30.12 in 10.0 mi NE 11.5 mph - N/A   Mostly Cloudy
3:53 PM 33.1 °F 22.2 °F 24.1 °F 70% 30.16 in 9.0 mi ENE 17.3 mph - 0.00 in Snow Light Snow
4:24 PM 30.0 °F 19.1 °F 26.1 °F 85% 30.09 in 1.5 mi NE 15.0 mph - 0.00 in Snow Light Snow
4:28 PM 30.0 °F 19.1 °F 27.0 °F 88% 30.09 in 1.0 mi NE 15.0 mph - 0.00 in Snow Light Snow
4:35 PM 28.9 °F 18.6 °F 27.0 °F 92% 30.09 in 0.8 mi NE 12.7 mph - 0.01 in Snow Light Snow
4:51 PM 28.4 °F 18.5 °F 26.6 °F 93% 30.10 in 0.5 mi NE 11.5 mph - 0.01 in Fog , Snow Snow
4:53 PM 28.9 °F 20.4 °F 27.0 °F 92% 30.23 in 0.5 mi NE 9.2 mph - 0.02 in Fog , Snow Snow
5:37 PM 28.9 °F 19.8 °F 27.0 °F 92% 30.13 in 1.2 mi ENE 10.4 mph - 0.03 in Snow Light Snow
5:53 PM 28.9 °F 20.4 °F 27.0 °F 92% 30.25 in 1.0 mi NE 9.2 mph - 0.04 in Snow Light Snow
6:22 PM 28.0 °F 18.1 °F 26.1 °F 92% 30.15 in 2.5 mi ENE 11.5 mph - 0.01 in Snow Light Snow
6:53 PM 28.0 °F 20.8 °F 26.1 °F 92% 30.29 in 1.8 mi ENE 6.9 mph - 0.01 in Snow Light Snow
7:31 PM 27.0 °F 18.0 °F 25.0 °F 92% 30.17 in 1.2 mi ENE 9.2 mph - 0.02 in Snow Light Snow
7:53 PM 27.0 °F 19.5 °F 25.0 °F 92% 30.30 in 2.0 mi East 6.9 mph - 0.03 in Snow Light Snow
8:21 PM 26.1 °F 15.6 °F 24.1 °F 92% 30.19 in 1.8 mi East 11.5 mph - 0.01 in Snow Light Snow
8:28 PM 26.1 °F 16.8 °F 23.0 °F 88% 30.19 in 2.0 mi East 9.2 mph - 0.01 in Snow Light Snow
8:48 PM 24.8 °F 16.1 °F 23.0 °F 93% 30.20 in 1.2 mi East 8.1 mph - 0.02 in Snow Light Snow
8:53 PM 25.0 °F 18.1 °F 23.0 °F 92% 30.33 in 1.2 mi East 5.8 mph - 0.02 in Snow Light Snow
9:12 PM 25.0 °F 17.1 °F 23.0 °F 92% 30.21 in 1.8 mi East 6.9 mph - 0.01 in Snow Light Snow
9:19 PM 25.0 °F 16.3 °F 23.0 °F 92% 30.21 in 2.0 mi East 8.1 mph - 0.01 in Snow Light Snow
9:27 PM 24.1 °F 14.4 °F 21.9 °F 91% 30.22 in 1.5 mi East 9.2 mph - 0.01 in Snow Light Snow
9:38 PM 24.1 °F 16.0 °F 21.9 °F 91% 30.22 in 1.8 mi East 6.9 mph - 0.01 in Snow Light Snow
9:53 PM 24.1 °F 15.2 °F 21.9 °F 91% 30.35 in 1.5 mi East 8.1 mph - 0.02 in Snow Light Snow
10:00 PM 24.1 °F 15.2 °F 21.9 °F 91% 30.24 in 3.0 mi East 8.1 mph - 0.00 in Snow Light Snow
10:36 PM 24.1 °F 19.7 °F 21.9 °F 91% 30.25 in 7.0 mi ENE 3.5 mph - 0.01 in Snow Light Snow
10:53 PM 24.1 °F 17.0 °F 21.0 °F 88% 30.38 in 8.0 mi East 5.8 mph - 0.01 in Snow Light Snow
11:06 PM 23.0 °F 17.0 °F 21.0 °F 92% 30.27 in 10.0 mi East 4.6 mph - 0.00 in   Overcast
11:20 PM 19.9 °F 12.1 °F 18.0 °F 92% 30.27 in 10.0 mi East 5.8 mph - 0.00 in   Mostly Cloudy
11:37 PM 19.9 °F 13.4 °F 18.0 °F 92% 30.28 in 1.8 mi NE 4.6 mph - 0.00 in   Scattered Clouds
11:46 PM 21.9 °F 17.2 °F 19.9 °F 92% 30.29 in 5.0 mi ENE 3.5 mph - 0.00 in   Partly Cloudy
11:53 PM 19.9 °F 14.9 °F 18.0 °F 92% 30.41 in 10.0 mi ENE 3.5 mph - 0.00 in   Partly Cloudy